DW3261 Weather Reports


time (UTC)temp
C
wind
direction
speed
KPH
gust
KPH
rain 1hr
cm
rain 24hr
cm
rain mn
cm
humidity
%
barometer
mb
20260503204315 20 172 17.7 35.4 0.00 0.00 0.00 49 1004.2
20260503203310 20 197 9.7 27.4 0.00 0.00 0.00 50 1004.3
20260503202323 19 148 8.0 35.4 0.00 0.00 0.00 47 1004.4
20260503201314 19 202 4.8 32.2 0.00 0.00 0.00 49 1004.6
20260503195322 20 155 11.3 32.2 0.00 0.00 0.00 46 1004.8
20260503194313 20 215 12.9 32.2 0.00 0.00 0.00 47 1004.8
20260503193322 20 186 4.8 30.6 0.00 0.00 0.00 45 1004.9
20260503192316 20 132 12.9 32.2 0.00 0.00 0.00 46 1004.9
20260503191311 20 165 9.7 30.6 0.00 0.00 0.00 44 1005.0
20260503190322 19 178 8.0 35.4 0.00 0.00 0.00 48 1005.1
20260503185312 19 184 11.3 41.8 0.00 0.00 0.00 47 1005.3
20260503183321 18 208 11.3 37.0 0.00 0.00 0.00 51 1005.6
20260503182311 18 154 16.1 30.6 0.00 0.00 0.00 52 1006.0
20260503180319 17 172 14.5 25.7 0.00 0.00 0.00 56 1006.2
20260503173315 16 131 17.7 30.6 0.00 0.00 0.00 57 1006.9
20260503172311 16 210 9.7 32.2 0.00 0.00 0.00 58 1007.1
20260503171321 15 186 17.7 30.6 0.00 0.00 0.00 58 1007.3
20260503170312 15 161 14.5 22.5 0.00 0.00 0.00 57 1007.6
20260503150319 15 221 3.2 38.6 0.00 0.00 0.00 52 1008.4
20260503140314 13 246 8.0 24.1 0.00 0.00 0.00 58 1009.1
20260503131312 11 163 1.6 17.7 0.00 0.00 0.00 58 1009.6
20260503130327 11 244 1.6 19.3 0.00 0.00 0.00 57 1009.6
20260503110316 10 232 0.0 14.5 0.00 0.00 0.00 57 1009.5
20260503090310 8 225 1.6 16.1 0.00 0.00 0.00 58 1010.2
20260503081311 8 172 1.6 11.3 0.00 0.00 0.00 60 1010.7
20260503080326 8 176 0.0 6.4 0.00 0.00 0.00 60 1010.8
20260503072311 7 176 1.6 9.7 0.00 0.00 0.00 62 1010.9
20260503071322 7 176 1.6 11.3 0.00 0.00 0.00 63 1011.1
20260503070311 7 179 1.6 6.4 0.00 0.00 0.00 64 1011.2
20260503060311 6 179 0.0 3.2 0.00 0.00 0.00 65 1011.6
20260503053329 5 179 0.0 3.2 0.00 0.00 0.00 67 1011.9
20260503052320 5 179 0.0 1.6 0.00 0.00 0.00 67 1011.9
20260503051311 5 179 0.0 1.6 0.00 0.00 0.00 66 1012.0
20260503050321 5 179 0.0 0.0 0.00 0.00 0.00 67 1012.1
20260503045316 5 179 0.0 0.0 0.00 0.00 0.00 67 1012.1
20260503044310 5 179 0.0 0.0 0.00 0.00 0.00 67 1012.2
20260503043321 5 179 0.0 0.0 0.00 0.00 0.00 67 1012.2
20260503041330 6 179 0.0 1.6 0.00 0.00 0.00 67 1012.4
20260503040321 6 179 0.0 1.6 0.00 0.00 0.00 67 1012.4
20260503034311 6 179 1.6 6.4 0.00 0.00 0.00 67 1012.6
20260503033323 6 179 0.0 1.6 0.00 0.00 0.00 67 1012.6
20260503032314 6 179 0.0 3.2 0.00 0.00 0.00 67 1012.7
20260503031326 6 179 0.0 3.2 0.00 0.00 0.00 67 1012.9
20260503030320 6 179 0.0 8.0 0.00 0.00 0.00 66 1012.9
20260503025310 6 179 1.6 6.4 0.00 0.00 0.00 66 1013.1
20260503022312 7 179 1.6 6.4 0.00 0.00 0.00 65 1013.1
20260503021322 7 179 0.0 6.4 0.00 0.00 0.00 65 1013.2
20260503020314 7 179 1.6 6.4 0.00 0.00 0.00 64 1013.1
20260503015325 7 179 0.0 6.4 0.00 0.00 0.00 63 1013.1
20260503014319 7 179 0.0 9.7 0.00 0.00 0.00 63 1013.0
20260503013309 8 179 1.6 9.7 0.00 0.00 0.00 62 1012.9
20260503011318 8 180 1.6 8.0 0.00 0.00 0.00 60 1013.0
20260503010309 8 181 3.2 8.0 0.00 0.00 0.00 60 1013.0
20260503005323 8 182 3.2 9.7 0.00 0.00 0.00 60 1013.0
20260503003311 9 186 0.0 8.0 0.00 0.00 0.00 60 1013.1
20260503001314 10 188 1.6 4.8 0.00 0.00 0.00 60 1013.2
20260503000326 10 188 1.6 9.7 0.00 0.00 0.00 60 1013.2
20260502235319 10 189 3.2 8.0 0.00 0.00 0.00 59 1013.3
20260502234313 10 189 3.2 8.0 0.00 0.00 0.00 59 1013.3
20260502233326 11 190 3.2 12.9 0.00 0.00 0.00 58 1013.4
20260502231314 11 156 4.8 9.7 0.00 0.00 0.00 57 1013.6
20260502230325 11 157 1.6 11.3 0.00 0.00 0.00 57 1013.7
20260502224329 11 181 1.6 9.7 0.00 0.00 0.00 55 1013.9
20260502223323 11 167 6.4 16.1 0.00 0.00 0.00 55 1014.1
20260502222314 11 257 1.6 17.7 0.00 0.00 0.00 53 1014.1
20260502215315 10 157 9.7 14.5 0.00 0.00 0.00 54 1014.4
20260502214326 11 202 6.4 12.9 0.00 0.00 0.00 52 1014.4
20260502213319 10 161 6.4 17.7 0.00 0.00 0.00 54 1014.6
20260502212316 11 146 1.6 19.3 0.00 0.00 0.00 50 1014.8
20260502210320 11 154 8.0 17.7 0.00 0.00 0.00 50 1014.8
20260502205313 12 175 6.4 14.5 0.00 0.00 0.00 48 1014.8